Time,TemperatureF,DewpointF,PressureIn,WindDirection,WindDirectionDegrees,WindSpeedMPH,WindSpeedGustMPH,Humidity,HourlyPrecipIn,Conditions,Clouds,dailyrainin,SoftwareType,DateUTC
2013-02-19 00:00:00,47.9,35.9,30.27,ENE,77,4.0,4.0,63,0.00,,,0.00,Wunderground v.1.15,2013-02-19 05:00:00,
2013-02-19 00:02:00,48.0,36.0,30.27,ENE,76,0.0,4.0,63,0.00,,,0.00,Wunderground v.1.15,2013-02-19 05:02:00,
2013-02-19 00:04:00,48.0,36.0,30.27,ENE,77,0.0,4.0,63,0.00,,,0.00,Wunderground v.1.15,2013-02-19 05:04:00,
2013-02-19 00:10:00,48.0,36.0,30.27,East,81,0.0,1.0,63,0.00,,,0.00,Wunderground v.1.15,2013-02-19 05:10:00,
2013-02-19 00:15:00,48.2,36.2,30.28,East,80,0.0,1.0,63,0.00,,,0.00,Wunderground v.1.15,2013-02-19 05:15:00,
2013-02-19 00:21:00,48.1,36.1,30.28,East,79,0.0,0.0,63,0.00,,,0.00,Wunderground v.1.15,2013-02-19 05:21:00,
2013-02-19 00:26:00,47.9,35.9,30.27,ENE,74,0.0,0.0,63,0.00,,,0.00,Wunderground v.1.15,2013-02-19 05:26:00,
2013-02-19 00:32:00,47.8,35.4,30.27,ENE,72,0.0,0.0,62,0.00,,,0.00,Wunderground v.1.15,2013-02-19 05:32:00,
2013-02-19 00:37:00,47.7,35.3,30.27,ENE,72,0.0,0.0,62,0.00,,,0.00,Wunderground v.1.15,2013-02-19 05:37:00,
2013-02-19 00:43:00,47.5,34.3,30.26,ENE,71,0.0,0.0,60,0.00,,,0.00,Wunderground v.1.15,2013-02-19 05:43:00,
2013-02-19 00:49:00,47.2,33.2,30.27,ENE,71,0.0,0.0,58,0.00,,,0.00,Wunderground v.1.15,2013-02-19 05:49:00,
2013-02-19 00:54:00,47.0,32.5,30.27,ENE,71,0.0,0.0,57,0.00,,,0.00,Wunderground v.1.15,2013-02-19 05:54:00,
2013-02-19 01:00:00,46.9,32.4,30.27,ENE,71,0.0,0.0,57,0.00,,,0.00,Wunderground v.1.15,2013-02-19 06:00:00,
2013-02-19 01:06:00,46.8,31.9,30.26,ENE,71,0.0,0.0,56,0.00,,,0.00,Wunderground v.1.15,2013-02-19 06:06:00,
2013-02-19 01:11:00,46.6,31.3,30.26,ENE,70,0.0,0.0,55,0.00,,,0.00,Wunderground v.1.15,2013-02-19 06:11:00,
2013-02-19 01:17:00,46.4,30.6,30.26,ENE,69,0.0,0.0,54,0.00,,,0.00,Wunderground v.1.15,2013-02-19 06:17:00,
2013-02-19 01:22:00,46.2,29.5,30.26,ENE,69,0.0,0.0,52,0.00,,,0.00,Wunderground v.1.15,2013-02-19 06:22:00,
2013-02-19 01:28:00,46.4,28.8,30.26,ENE,70,0.0,0.0,50,0.00,,,0.00,Wunderground v.1.15,2013-02-19 06:28:00,
2013-02-19 01:33:00,46.5,28.8,30.26,NE,53,0.0,1.0,50,0.00,,,0.00,Wunderground v.1.15,2013-02-19 06:33:00,
2013-02-19 01:39:00,46.3,28.7,30.26,NE,52,0.0,1.0,50,0.00,,,0.00,Wunderground v.1.15,2013-02-19 06:39:00,
2013-02-19 01:45:00,46.2,28.6,30.26,NE,51,0.0,0.0,50,0.00,,,0.00,Wunderground v.1.15,2013-02-19 06:45:00,
2013-02-19 01:50:00,46.2,28.6,30.26,NW,322,1.0,1.0,50,0.00,,,0.00,Wunderground v.1.15,2013-02-19 06:50:00,
2013-02-19 01:56:00,45.9,28.3,30.26,NW,319,0.0,3.0,50,0.00,,,0.00,Wunderground v.1.15,2013-02-19 06:56:00,
2013-02-19 02:01:00,45.7,27.6,30.26,NW,320,0.0,1.0,49,0.00,,,0.00,Wunderground v.1.15,2013-02-19 07:01:00,
2013-02-19 02:06:00,45.7,28.1,30.25,NW,320,0.0,1.0,50,0.00,,,0.00,Wunderground v.1.15,2013-02-19 07:06:00,
2013-02-19 02:11:00,45.8,27.7,30.25,NW,319,0.0,0.0,49,0.00,,,0.00,Wunderground v.1.15,2013-02-19 07:11:00,
2013-02-19 02:16:00,46.0,27.9,30.24,NW,320,0.0,0.0,49,0.00,,,0.00,Wunderground v.1.15,2013-02-19 07:16:00,
2013-02-19 02:21:00,46.2,27.6,30.24,NW,319,0.0,0.0,48,0.00,,,0.00,Wunderground v.1.15,2013-02-19 07:21:00,
2013-02-19 02:26:00,46.4,27.8,30.23,NW,323,0.0,1.0,48,0.00,,,0.00,Wunderground v.1.15,2013-02-19 07:26:00,
2013-02-19 02:31:00,46.4,27.8,30.23,NW,323,0.0,0.0,48,0.00,,,0.00,Wunderground v.1.15,2013-02-19 07:31:00,
2013-02-19 02:36:00,46.5,27.3,30.22,NNW,332,0.0,1.0,47,0.00,,,0.00,Wunderground v.1.15,2013-02-19 07:36:00,
2013-02-19 02:41:00,46.7,27.0,30.22,NNW,333,0.0,0.0,46,0.00,,,0.00,Wunderground v.1.15,2013-02-19 07:41:00,
2013-02-19 02:46:00,46.7,26.5,30.22,NNW,338,0.0,0.0,45,0.00,,,0.00,Wunderground v.1.15,2013-02-19 07:46:00,
2013-02-19 02:51:00,46.6,25.8,30.22,NNW,340,0.0,0.0,44,0.00,,,0.00,Wunderground v.1.15,2013-02-19 07:51:00,
2013-02-19 02:56:00,46.9,25.5,30.22,NNW,341,0.0,4.0,43,0.00,,,0.00,Wunderground v.1.15,2013-02-19 07:56:00,
2013-02-19 03:01:00,46.9,25.0,30.21,North,9,0.0,4.0,42,0.00,,,0.00,Wunderground v.1.15,2013-02-19 08:01:00,
2013-02-19 03:06:00,47.1,25.2,30.21,NE,52,2.0,5.0,42,0.00,,,0.00,Wunderground v.1.15,2013-02-19 08:06:00,
2013-02-19 03:11:00,47.2,25.3,30.21,NE,52,0.0,1.0,42,0.00,,,0.00,Wunderground v.1.15,2013-02-19 08:11:00,
2013-02-19 03:16:00,47.3,25.3,30.21,NE,54,4.0,5.0,42,0.00,,,0.00,Wunderground v.1.15,2013-02-19 08:16:00,
2013-02-19 03:21:00,47.3,25.3,30.20,NE,56,0.0,1.0,42,0.00,,,0.00,Wunderground v.1.15,2013-02-19 08:21:00,
2013-02-19 03:26:00,47.3,25.3,30.20,ENE,57,0.0,3.0,42,0.00,,,0.00,Wunderground v.1.15,2013-02-19 08:26:00,
2013-02-19 03:31:00,47.5,24.9,30.19,ENE,58,0.0,0.0,41,0.00,,,0.00,Wunderground v.1.15,2013-02-19 08:31:00,
2013-02-19 03:36:00,47.8,25.2,30.20,ENE,57,0.0,1.0,41,0.00,,,0.00,Wunderground v.1.15,2013-02-19 08:36:00,
2013-02-19 03:41:00,47.8,25.2,30.19,ENE,58,0.0,0.0,41,0.00,,,0.00,Wunderground v.1.15,2013-02-19 08:41:00,
2013-02-19 03:46:00,48.0,25.4,30.19,ENE,58,0.0,0.0,41,0.00,,,0.00,Wunderground v.1.15,2013-02-19 08:46:00,
2013-02-19 03:51:00,48.4,25.8,30.19,ENE,57,0.0,0.0,41,0.00,,,0.00,Wunderground v.1.15,2013-02-19 08:51:00,
2013-02-19 03:56:00,48.7,26.0,30.19,ENE,58,0.0,0.0,41,0.00,,,0.00,Wunderground v.1.15,2013-02-19 08:56:00,
2013-02-19 04:01:00,49.1,25.8,30.19,ENE,58,0.0,0.0,40,0.00,,,0.00,Wunderground v.1.15,2013-02-19 09:01:00,
2013-02-19 04:06:00,49.7,26.9,30.18,ENE,59,0.0,0.0,41,0.00,,,0.00,Wunderground v.1.15,2013-02-19 09:06:00,
2013-02-19 04:12:00,50.1,27.9,30.18,ENE,61,0.0,4.0,42,0.00,,,0.00,Wunderground v.1.15,2013-02-19 09:12:00,
2013-02-19 04:17:00,50.6,28.3,30.18,ENE,63,0.0,5.0,42,0.00,,,0.00,Wunderground v.1.15,2013-02-19 09:17:00,
2013-02-19 04:22:00,50.8,29.1,30.17,ENE,63,0.0,0.0,43,0.00,,,0.00,Wunderground v.1.15,2013-02-19 09:22:00,
2013-02-19 04:27:00,50.7,29.0,30.17,ENE,64,0.0,0.0,43,0.00,,,0.00,Wunderground v.1.15,2013-02-19 09:27:00,
2013-02-19 04:32:00,50.7,29.0,30.17,ENE,63,0.0,0.0,43,0.00,,,0.00,Wunderground v.1.15,2013-02-19 09:32:00,
2013-02-19 04:37:00,50.7,28.4,30.17,ENE,67,0.0,4.0,42,0.00,,,0.00,Wunderground v.1.15,2013-02-19 09:37:00,
2013-02-19 04:42:00,50.9,28.0,30.17,ENE,67,0.0,1.0,41,0.00,,,0.00,Wunderground v.1.15,2013-02-19 09:42:00,
2013-02-19 04:47:00,51.0,28.1,30.17,ENE,67,0.0,1.0,41,0.00,,,0.00,Wunderground v.1.15,2013-02-19 09:47:00,
2013-02-19 04:52:00,51.1,28.2,30.17,ENE,67,0.0,0.0,41,0.00,,,0.00,Wunderground v.1.15,2013-02-19 09:52:00,
2013-02-19 04:57:00,51.3,28.4,30.17,ENE,71,0.0,5.0,41,0.00,,,0.00,Wunderground v.1.15,2013-02-19 09:57:00,
2013-02-19 05:02:00,51.6,28.6,30.16,ESE,115,6.0,8.0,41,0.00,,,0.00,Wunderground v.1.15,2013-02-19 10:02:00,
2013-02-19 05:07:00,52.1,29.7,30.16,ESE,121,6.0,8.0,42,0.00,,,0.00,Wunderground v.1.15,2013-02-19 10:07:00,
2013-02-19 05:12:00,52.4,30.0,30.16,ESE,117,5.0,7.0,42,0.00,,,0.00,Wunderground v.1.15,2013-02-19 10:12:00,
2013-02-19 05:17:00,52.3,29.3,30.16,ESE,111,0.0,7.0,41,0.00,,,0.00,Wunderground v.1.15,2013-02-19 10:17:00,
2013-02-19 05:22:00,52.2,28.0,30.16,ESE,111,0.0,2.0,39,0.00,,,0.00,Wunderground v.1.15,2013-02-19 10:22:00,
2013-02-19 05:27:00,52.1,27.2,30.16,ESE,110,0.0,2.0,38,0.00,,,0.00,Wunderground v.1.15,2013-02-19 10:27:00,
2013-02-19 05:32:00,52.0,27.1,30.16,ESE,111,0.0,0.0,38,0.00,,,0.00,Wunderground v.1.15,2013-02-19 10:32:00,
2013-02-19 05:37:00,52.0,26.5,30.16,ESE,111,0.0,0.0,37,0.00,,,0.00,Wunderground v.1.15,2013-02-19 10:37:00,
2013-02-19 05:42:00,52.0,26.5,30.16,ESE,111,0.0,0.0,37,0.00,,,0.00,Wunderground v.1.15,2013-02-19 10:42:00,
2013-02-19 05:47:00,51.9,26.4,30.16,ESE,111,0.0,0.0,37,0.00,,,0.00,Wunderground v.1.15,2013-02-19 10:47:00,
2013-02-19 05:52:00,51.7,26.2,30.16,ESE,111,0.0,0.0,37,0.00,,,0.00,Wunderground v.1.15,2013-02-19 10:52:00,
2013-02-19 05:57:00,51.7,25.6,30.15,ESE,110,0.0,0.0,36,0.00,,,0.00,Wunderground v.1.15,2013-02-19 10:57:00,
2013-02-19 06:02:00,51.9,25.8,30.16,ESE,111,0.0,0.0,36,0.00,,,0.00,Wunderground v.1.15,2013-02-19 11:02:00,
2013-02-19 06:07:00,52.0,25.8,30.15,ESE,109,0.0,4.0,36,0.00,,,0.00,Wunderground v.1.15,2013-02-19 11:07:00,
2013-02-19 06:12:00,52.1,25.9,30.15,ESE,103,1.0,5.0,36,0.00,,,0.00,Wunderground v.1.15,2013-02-19 11:12:00,
2013-02-19 06:17:00,52.2,26.0,30.15,ESE,103,0.0,6.0,36,0.00,,,0.00,Wunderground v.1.15,2013-02-19 11:17:00,
2013-02-19 06:22:00,52.1,25.9,30.15,ESE,104,0.0,2.0,36,0.00,,,0.00,Wunderground v.1.15,2013-02-19 11:22:00,
2013-02-19 06:27:00,52.1,25.9,30.15,ESE,104,0.0,2.0,36,0.00,,,0.00,Wunderground v.1.15,2013-02-19 11:27:00,
2013-02-19 06:32:00,52.2,26.0,30.15,ESE,104,0.0,0.0,36,0.00,,,0.00,Wunderground v.1.15,2013-02-19 11:32:00,
2013-02-19 06:37:00,52.4,26.2,30.15,ESE,103,0.0,5.0,36,0.00,,,0.00,Wunderground v.1.15,2013-02-19 11:37:00,
2013-02-19 06:42:00,52.5,26.3,30.15,ESE,111,4.0,6.0,36,0.00,,,0.00,Wunderground v.1.15,2013-02-19 11:42:00,
2013-02-19 06:47:00,52.7,26.5,30.15,ESE,110,5.0,6.0,36,0.00,,,0.00,Wunderground v.1.15,2013-02-19 11:47:00,
2013-02-19 06:52:00,53.0,26.7,30.15,ESE,115,2.0,5.0,36,0.00,,,0.00,Wunderground v.1.15,2013-02-19 11:52:00,
2013-02-19 06:57:00,53.1,26.8,30.15,ESE,106,0.0,6.0,36,0.00,,,0.00,Wunderground v.1.15,2013-02-19 11:57:00,
2013-02-19 07:02:00,53.3,27.0,30.14,ESE,116,2.0,7.0,36,0.00,,,0.00,Wunderground v.1.15,2013-02-19 12:02:00,
2013-02-19 07:07:00,53.4,27.8,30.14,ESE,116,0.0,7.0,37,0.00,,,0.00,Wunderground v.1.15,2013-02-19 12:07:00,
2013-02-19 07:12:00,53.4,27.8,30.14,ESE,118,0.0,3.0,37,0.00,,,0.00,Wunderground v.1.15,2013-02-19 12:12:00,
2013-02-19 07:17:00,53.5,27.2,30.14,ESE,118,0.0,3.0,36,0.00,,,0.00,Wunderground v.1.15,2013-02-19 12:17:00,
2013-02-19 07:22:00,53.7,28.7,30.14,ESE,116,1.0,5.0,38,0.00,,,0.00,Wunderground v.1.15,2013-02-19 12:22:00,
2013-02-19 07:27:00,54.0,28.3,30.14,SE,124,4.0,5.0,37,0.00,,,0.00,Wunderground v.1.15,2013-02-19 12:27:00,
2013-02-19 07:32:00,54.1,29.0,30.15,ESE,122,0.0,7.0,38,0.00,,,0.00,Wunderground v.1.15,2013-02-19 12:32:00,
2013-02-19 07:37:00,54.2,29.1,30.15,SE,124,0.0,7.0,38,0.00,,,0.00,Wunderground v.1.15,2013-02-19 12:37:00,
2013-02-19 07:42:00,54.2,29.1,30.15,SE,126,2.0,4.0,38,0.00,,,0.00,Wunderground v.1.15,2013-02-19 12:42:00,
2013-02-19 07:47:00,54.1,29.0,30.16,SE,132,0.0,5.0,38,0.00,,,0.00,Wunderground v.1.15,2013-02-19 12:47:00,
2013-02-19 07:52:00,54.1,29.0,30.16,SE,132,0.0,1.0,38,0.00,,,0.00,Wunderground v.1.15,2013-02-19 12:52:00,
2013-02-19 07:57:00,54.3,29.2,30.16,South,170,2.0,5.0,38,0.00,,,0.00,Wunderground v.1.15,2013-02-19 12:57:00,
2013-02-19 08:02:00,54.4,29.3,30.16,South,186,0.0,2.0,38,0.00,,,0.00,Wunderground v.1.15,2013-02-19 13:02:00,
2013-02-19 08:07:00,54.5,29.4,30.16,SSW,196,4.0,6.0,38,0.00,,,0.00,Wunderground v.1.15,2013-02-19 13:07:00,
2013-02-19 08:12:00,54.6,29.5,30.16,SSW,198,0.0,5.0,38,0.00,,,0.00,Wunderground v.1.15,2013-02-19 13:12:00,
2013-02-19 08:17:00,54.9,29.1,30.16,South,183,1.0,6.0,37,0.00,,,0.00,Wunderground v.1.15,2013-02-19 13:17:00,
2013-02-19 08:22:00,55.5,29.6,30.16,SSW,202,7.0,8.0,37,0.00,,,0.00,Wunderground v.1.15,2013-02-19 13:22:00,
2013-02-19 08:27:00,56.1,30.2,30.16,SSW,198,6.0,8.0,37,0.00,,,0.00,Wunderground v.1.15,2013-02-19 13:27:00,
2013-02-19 08:32:00,56.7,31.4,30.16,SSW,210,8.0,10.0,38,0.00,,,0.00,Wunderground v.1.15,2013-02-19 13:32:00,
2013-02-19 08:37:00,57.1,32.4,30.17,SW,216,6.0,12.0,39,0.00,,,0.00,Wunderground v.1.15,2013-02-19 13:37:00,
2013-02-19 08:42:00,57.4,32.6,30.16,SW,226,7.0,9.0,39,0.00,,,0.00,Wunderground v.1.15,2013-02-19 13:42:00,
2013-02-19 08:47:00,57.8,33.6,30.16,SSW,203,6.0,11.0,40,0.00,,,0.00,Wunderground v.1.15,2013-02-19 13:47:00,
2013-02-19 08:52:00,58.4,35.4,30.16,South,173,9.0,16.0,42,0.00,,,0.00,Wunderground v.1.15,2013-02-19 13:52:00,
2013-02-19 08:57:00,59.0,37.1,30.15,SSW,211,9.0,18.0,44,0.00,,,0.00,Wunderground v.1.15,2013-02-19 13:57:00,
2013-02-19 09:02:00,59.1,38.9,30.15,SW,230,13.0,15.0,47,0.00,,,0.00,Wunderground v.1.15,2013-02-19 14:02:00,
2013-02-19 09:07:00,59.5,40.8,30.15,WSW,247,10.0,18.0,50,0.00,,,0.00,Wunderground v.1.15,2013-02-19 14:07:00,
2013-02-19 09:12:00,60.3,43.1,30.16,SW,219,8.0,18.0,53,0.00,,,0.00,Wunderground v.1.15,2013-02-19 14:12:00,
2013-02-19 09:17:00,61.0,44.7,30.15,SSW,213,9.0,25.0,55,0.00,,,0.00,Wunderground v.1.15,2013-02-19 14:17:00,
2013-02-19 09:22:00,61.3,45.9,30.15,SSW,212,9.0,19.0,57,0.00,,,0.00,Wunderground v.1.15,2013-02-19 14:22:00,
2013-02-19 09:27:00,61.5,46.1,30.15,SW,227,16.0,24.0,57,0.00,,,0.00,Wunderground v.1.15,2013-02-19 14:27:00,
2013-02-19 09:33:00,61.7,46.8,30.15,SSW,207,21.0,21.0,58,0.00,,,0.00,Wunderground v.1.15,2013-02-19 14:33:00,
2013-02-19 09:38:00,61.8,46.9,30.15,WSW,245,10.0,21.0,58,0.00,,,0.00,Wunderground v.1.15,2013-02-19 14:38:00,
2013-02-19 09:43:00,62.1,47.6,30.15,SW,217,13.0,18.0,59,0.00,,,0.00,Wunderground v.1.15,2013-02-19 14:43:00,
2013-02-19 09:48:00,62.3,47.8,30.15,WSW,239,8.0,21.0,59,0.00,,,0.00,Wunderground v.1.15,2013-02-19 14:48:00,
2013-02-19 09:53:00,62.4,48.3,30.15,SW,230,14.0,23.0,60,0.00,,,0.00,Wunderground v.1.15,2013-02-19 14:53:00,
2013-02-19 09:58:00,62.7,48.6,30.15,SW,222,12.0,23.0,60,0.00,,,0.00,Wunderground v.1.15,2013-02-19 14:58:00,
2013-02-19 10:03:00,63.0,49.3,30.15,SW,232,15.0,22.0,61,0.00,,,0.00,Wunderground v.1.15,2013-02-19 15:03:00,
2013-02-19 10:08:00,63.6,49.9,30.14,SSW,198,16.0,22.0,61,0.00,,,0.00,Wunderground v.1.15,2013-02-19 15:08:00,
2013-02-19 10:13:00,63.7,50.4,30.14,SSW,197,6.0,16.0,62,0.00,,,0.00,Wunderground v.1.15,2013-02-19 15:13:00,
2013-02-19 10:18:00,64.0,50.7,30.13,SW,231,16.0,21.0,62,0.00,,,0.00,Wunderground v.1.15,2013-02-19 15:18:00,
2013-02-19 10:23:00,63.6,50.3,30.13,SW,217,15.0,21.0,62,0.00,,,0.00,Wunderground v.1.15,2013-02-19 15:23:00,
2013-02-19 10:28:00,63.4,50.1,30.13,SSW,213,12.0,29.0,62,0.00,,,0.00,Wunderground v.1.15,2013-02-19 15:28:00,
2013-02-19 10:33:00,63.4,50.6,30.12,WSW,246,14.0,23.0,63,0.00,,,0.00,Wunderground v.1.15,2013-02-19 15:33:00,
2013-02-19 10:38:00,63.4,50.1,30.12,SW,229,24.0,28.0,62,0.00,,,0.00,Wunderground v.1.15,2013-02-19 15:38:00,
2013-02-19 10:43:00,63.6,50.3,30.12,WSW,253,16.0,25.0,62,0.00,,,0.00,Wunderground v.1.15,2013-02-19 15:43:00,
2013-02-19 10:48:00,63.9,50.6,30.11,WSW,242,20.0,33.0,62,0.00,,,0.00,Wunderground v.1.15,2013-02-19 15:48:00,
2013-02-19 10:53:00,64.2,50.9,30.11,SW,217,20.0,32.0,62,0.00,,,0.00,Wunderground v.1.15,2013-02-19 15:53:00,
2013-02-19 10:58:00,64.2,50.9,30.11,WSW,238,11.0,32.0,62,0.00,,,0.00,Wunderground v.1.15,2013-02-19 15:58:00,
2013-02-19 11:03:00,64.1,50.8,30.11,SSW,209,23.0,34.0,62,0.00,,,0.00,Wunderground v.1.15,2013-02-19 16:03:00,
2013-02-19 11:08:00,64.0,50.7,30.11,SSW,204,14.0,34.0,62,0.00,,,0.00,Wunderground v.1.15,2013-02-19 16:08:00,
2013-02-19 11:13:00,63.9,51.1,30.11,SW,220,12.0,28.0,63,0.00,,,0.00,Wunderground v.1.15,2013-02-19 16:13:00,
2013-02-19 11:18:00,63.7,50.9,30.12,SW,234,15.0,33.0,63,0.00,,,0.00,Wunderground v.1.15,2013-02-19 16:18:00,
2013-02-19 11:23:00,63.7,50.9,30.12,SSW,193,13.0,28.0,63,0.00,,,0.00,Wunderground v.1.15,2013-02-19 16:23:00,
2013-02-19 11:28:00,63.8,51.0,30.11,South,190,23.0,29.0,63,0.00,,,0.00,Wunderground v.1.15,2013-02-19 16:28:00,
2013-02-19 11:33:00,64.1,51.2,30.12,SSW,213,15.0,30.0,63,0.00,,,0.00,Wunderground v.1.15,2013-02-19 16:33:00,
2013-02-19 11:38:00,63.5,51.1,30.12,SW,221,19.0,34.0,64,0.00,,,0.00,Wunderground v.1.15,2013-02-19 16:38:00,
2013-02-19 11:43:00,63.3,50.9,30.11,West,264,10.0,26.0,64,0.00,,,0.00,Wunderground v.1.15,2013-02-19 16:43:00,
2013-02-19 11:48:00,63.5,51.1,30.11,SW,229,16.0,26.0,64,0.00,,,0.00,Wunderground v.1.15,2013-02-19 16:48:00,
2013-02-19 11:53:00,63.8,51.0,30.10,SSW,207,12.0,27.0,63,0.00,,,0.00,Wunderground v.1.15,2013-02-19 16:53:00,
2013-02-19 11:58:00,63.9,51.1,30.10,SSW,195,13.0,27.0,63,0.00,,,0.00,Wunderground v.1.15,2013-02-19 16:58:00,
2013-02-19 12:03:00,63.8,51.4,30.10,SSW,212,7.0,26.0,64,0.00,,,0.00,Wunderground v.1.15,2013-02-19 17:03:00,
2013-02-19 12:08:00,63.8,51.4,30.10,SW,221,13.0,26.0,64,0.00,,,0.00,Wunderground v.1.15,2013-02-19 17:08:00,
2013-02-19 12:13:00,63.7,51.3,30.09,SW,229,19.0,32.0,64,0.00,,,0.00,Wunderground v.1.15,2013-02-19 17:13:00,
2013-02-19 12:18:00,63.5,51.1,30.08,SSW,212,19.0,32.0,64,0.00,,,0.00,Wunderground v.1.15,2013-02-19 17:18:00,
2013-02-19 12:23:00,63.4,51.0,30.08,SSW,200,18.0,31.0,64,0.00,,,0.00,Wunderground v.1.15,2013-02-19 17:23:00,
2013-02-19 12:28:00,63.1,51.1,30.08,SW,234,19.0,33.0,65,0.00,,,0.00,Wunderground v.1.15,2013-02-19 17:28:00,
2013-02-19 12:33:00,62.6,50.7,30.07,SSW,205,21.0,30.0,65,0.00,,,0.00,Wunderground v.1.15,2013-02-19 17:33:00,
2013-02-19 12:38:00,62.4,50.5,30.07,SSW,196,14.0,30.0,65,0.00,,,0.00,Wunderground v.1.15,2013-02-19 17:38:00,
2013-02-19 12:43:00,62.1,49.8,30.07,SW,227,24.0,32.0,64,0.00,,,0.00,Wunderground v.1.15,2013-02-19 17:43:00,
2013-02-19 12:48:00,62.0,49.3,30.07,WSW,244,19.0,32.0,63,0.00,,,0.00,Wunderground v.1.15,2013-02-19 17:48:00,
2013-02-19 12:53:00,61.9,48.7,30.07,South,187,10.0,28.0,62,0.00,,,0.00,Wunderground v.1.15,2013-02-19 17:53:00,
2013-02-19 12:58:00,61.7,48.5,30.06,SW,223,29.0,29.0,62,0.00,,,0.00,Wunderground v.1.15,2013-02-19 17:58:00,
2013-02-19 13:03:00,61.6,48.4,30.06,SW,226,13.0,33.0,62,0.00,,,0.00,Wunderground v.1.15,2013-02-19 18:03:00,
2013-02-19 13:08:00,61.0,46.1,30.06,South,182,16.0,33.0,58,0.00,,,0.01,Wunderground v.1.15,2013-02-19 18:08:00,
2013-02-19 13:13:00,60.0,41.3,30.06,WSW,252,16.0,27.0,50,0.00,,,0.01,Wunderground v.1.15,2013-02-19 18:13:00,
2013-02-19 13:18:00,59.7,37.2,30.06,SW,217,16.0,32.0,43,0.06,,,0.02,Wunderground v.1.15,2013-02-19 18:18:00,
2013-02-19 13:23:00,59.6,34.6,30.05,SSW,203,21.0,27.0,39,0.06,,,0.02,Wunderground v.1.15,2013-02-19 18:23:00,
2013-02-19 13:28:00,59.4,33.1,30.05,SW,219,24.0,30.0,37,0.08,,,0.03,Wunderground v.1.15,2013-02-19 18:28:00,
2013-02-19 13:33:00,59.3,32.3,30.05,SW,218,9.0,30.0,36,0.06,,,0.03,Wunderground v.1.15,2013-02-19 18:33:00,
2013-02-19 13:38:00,59.1,31.4,30.04,SW,221,6.0,30.0,35,0.05,,,0.04,Wunderground v.1.15,2013-02-19 18:38:00,
2013-02-19 13:43:00,59.1,30.7,30.04,SSW,196,14.0,27.0,34,0.08,,,0.05,Wunderground v.1.15,2013-02-19 18:43:00,
2013-02-19 13:48:00,59.1,30.0,30.03,SSW,202,9.0,29.0,33,0.08,,,0.05,Wunderground v.1.15,2013-02-19 18:48:00,
2013-02-19 13:53:00,59.0,29.9,30.03,SW,221,12.0,26.0,33,0.05,,,0.06,Wunderground v.1.15,2013-02-19 18:53:00,
2013-02-19 13:58:00,58.8,29.0,30.03,WSW,238,8.0,26.0,32,0.05,,,0.06,Wunderground v.1.15,2013-02-19 18:58:00,
2013-02-19 14:03:00,58.7,28.9,30.02,South,186,8.0,24.0,32,0.09,,,0.07,Wunderground v.1.15,2013-02-19 19:03:00,
2013-02-19 14:08:00,58.7,28.9,30.02,SSW,194,19.0,24.0,32,0.07,,,0.07,Wunderground v.1.15,2013-02-19 19:08:00,
2013-02-19 14:13:00,58.7,28.9,30.02,SW,229,6.0,20.0,32,0.04,,,0.07,Wunderground v.1.15,2013-02-19 19:13:00,
2013-02-19 14:18:00,58.7,28.9,30.01,SSW,207,12.0,27.0,32,0.00,,,0.07,Wunderground v.1.15,2013-02-19 19:18:00,
2013-02-19 14:23:00,58.8,29.0,30.01,WSW,238,8.0,19.0,32,0.00,,,0.07,Wunderground v.1.15,2013-02-19 19:23:00,
2013-02-19 14:28:00,58.9,29.1,30.02,South,177,13.0,19.0,32,0.00,,,0.07,Wunderground v.1.15,2013-02-19 19:28:00,
2013-02-19 14:33:00,58.9,29.1,30.01,SW,234,9.0,25.0,32,0.00,,,0.07,Wunderground v.1.15,2013-02-19 19:33:00,
2013-02-19 14:39:00,59.1,29.2,30.01,SW,225,9.0,25.0,32,0.00,,,0.07,Wunderground v.1.15,2013-02-19 19:39:00,
2013-02-19 14:44:00,59.1,29.2,30.00,SW,223,24.0,24.0,32,0.00,,,0.08,Wunderground v.1.15,2013-02-19 19:44:00,
2013-02-19 14:49:00,59.1,29.2,30.00,SW,219,15.0,24.0,32,0.00,,,0.08,Wunderground v.1.15,2013-02-19 19:49:00,
2013-02-19 14:54:00,59.1,29.2,30.00,SSW,200,16.0,23.0,32,0.00,,,0.08,Wunderground v.1.15,2013-02-19 19:54:00,
2013-02-19 14:59:00,59.2,29.3,30.01,WSW,248,8.0,23.0,32,0.00,,,0.08,Wunderground v.1.15,2013-02-19 19:59:00,
2013-02-19 15:04:00,59.2,29.3,30.00,SW,220,10.0,23.0,32,0.00,,,0.08,Wunderground v.1.15,2013-02-19 20:04:00,
2013-02-19 15:09:00,59.1,29.2,30.01,SW,221,19.0,23.0,32,0.00,,,0.09,Wunderground v.1.15,2013-02-19 20:09:00,
2013-02-19 15:14:00,59.1,29.2,30.01,SW,234,9.0,21.0,32,0.25,,,0.11,Wunderground v.1.15,2013-02-19 20:14:00,
2013-02-19 15:19:00,58.8,29.0,30.00,SW,223,14.0,23.0,32,0.13,,,0.12,Wunderground v.1.15,2013-02-19 20:19:00,
2013-02-19 15:24:00,58.6,28.8,30.01,SSW,213,15.0,16.0,32,0.16,,,0.13,Wunderground v.1.15,2013-02-19 20:24:00,
2013-02-19 15:29:00,58.5,28.7,30.01,SW,226,9.0,16.0,32,0.10,,,0.14,Wunderground v.1.15,2013-02-19 20:29:00,
2013-02-19 15:34:00,58.4,28.6,30.00,WSW,241,13.0,19.0,32,0.10,,,0.15,Wunderground v.1.15,2013-02-19 20:34:00,
2013-02-19 15:39:00,58.3,29.3,30.00,SW,236,11.0,23.0,33,0.09,,,0.15,Wunderground v.1.15,2013-02-19 20:39:00,
2013-02-19 15:44:00,58.2,29.2,30.00,SW,219,12.0,21.0,33,0.09,,,0.16,Wunderground v.1.15,2013-02-19 20:44:00,
2013-02-19 15:49:00,58.1,29.1,30.01,SW,227,7.0,21.0,33,0.11,,,0.17,Wunderground v.1.15,2013-02-19 20:49:00,
2013-02-19 15:54:00,58.1,29.1,30.00,SW,214,13.0,18.0,33,0.06,,,0.17,Wunderground v.1.15,2013-02-19 20:54:00,
2013-02-19 15:59:00,58.2,29.2,30.00,South,190,7.0,21.0,33,0.04,,,0.17,Wunderground v.1.15,2013-02-19 20:59:00,
2013-02-19 16:04:00,58.2,29.2,30.00,SW,225,7.0,18.0,33,0.00,,,0.17,Wunderground v.1.15,2013-02-19 21:04:00,
2013-02-19 16:09:00,58.3,29.3,30.00,West,264,8.0,18.0,33,0.00,,,0.17,Wunderground v.1.15,2013-02-19 21:09:00,
2013-02-19 16:14:00,58.3,30.0,29.99,SSW,209,16.0,16.0,34,0.00,,,0.17,Wunderground v.1.15,2013-02-19 21:14:00,
2013-02-19 16:19:00,58.3,30.0,29.99,SW,221,8.0,16.0,34,0.00,,,0.17,Wunderground v.1.15,2013-02-19 21:19:00,
2013-02-19 16:24:00,58.3,30.0,29.99,SW,221,4.0,11.0,34,0.00,,,0.17,Wunderground v.1.15,2013-02-19 21:24:00,
2013-02-19 16:29:00,58.3,30.0,30.00,WSW,250,5.0,11.0,34,0.00,,,0.17,Wunderground v.1.15,2013-02-19 21:29:00,
2013-02-19 16:34:00,58.3,30.0,30.00,West,264,9.0,11.0,34,0.00,,,0.17,Wunderground v.1.15,2013-02-19 21:34:00,
2013-02-19 16:39:00,58.2,29.9,30.00,West,268,5.0,11.0,34,0.00,,,0.17,Wunderground v.1.15,2013-02-19 21:39:00,
2013-02-19 16:44:00,58.1,29.8,30.00,WSW,258,7.0,13.0,34,0.00,,,0.17,Wunderground v.1.15,2013-02-19 21:44:00,
2013-02-19 16:49:00,58.1,29.8,30.00,WSW,238,4.0,13.0,34,0.00,,,0.18,Wunderground v.1.15,2013-02-19 21:49:00,
2013-02-19 16:54:00,58.1,29.8,30.00,West,277,6.0,13.0,34,0.00,,,0.18,Wunderground v.1.15,2013-02-19 21:54:00,
2013-02-19 16:59:00,58.1,29.8,30.00,West,267,6.0,13.0,34,0.00,,,0.18,Wunderground v.1.15,2013-02-19 21:59:00,
2013-02-19 17:04:00,58.0,29.8,30.00,West,277,0.0,13.0,34,0.00,,,0.18,Wunderground v.1.15,2013-02-19 22:04:00,
2013-02-19 17:09:00,57.9,29.7,30.00,SW,221,6.0,14.0,34,0.00,,,0.18,Wunderground v.1.15,2013-02-19 22:09:00,
2013-02-19 17:14:00,57.8,29.6,30.00,West,263,6.0,14.0,34,0.00,,,0.18,Wunderground v.1.15,2013-02-19 22:14:00,
2013-02-19 17:19:00,57.8,29.6,30.00,WNW,292,4.0,14.0,34,0.00,,,0.18,Wunderground v.1.15,2013-02-19 22:19:00,
2013-02-19 17:24:00,57.8,29.6,30.00,WSW,248,2.0,11.0,34,0.00,,,0.18,Wunderground v.1.15,2013-02-19 22:24:00,
2013-02-19 17:29:00,57.8,29.6,30.01,SW,234,2.0,13.0,34,0.00,,,0.18,Wunderground v.1.15,2013-02-19 22:29:00,
2013-02-19 17:34:00,57.8,29.6,30.01,WSW,257,13.0,13.0,34,0.00,,,0.18,Wunderground v.1.15,2013-02-19 22:34:00,
2013-02-19 17:39:00,57.8,29.6,30.01,West,260,5.0,13.0,34,0.00,,,0.18,Wunderground v.1.15,2013-02-19 22:39:00,
2013-02-19 17:44:00,57.8,29.6,30.01,WSW,252,11.0,14.0,34,0.00,,,0.18,Wunderground v.1.15,2013-02-19 22:44:00,
2013-02-19 17:49:00,57.8,29.6,30.01,West,275,9.0,14.0,34,0.00,,,0.18,Wunderground v.1.15,2013-02-19 22:49:00,
2013-02-19 17:54:00,57.7,29.5,30.01,SW,232,11.0,13.0,34,0.00,,,0.18,Wunderground v.1.15,2013-02-19 22:54:00,
2013-02-19 17:59:00,57.6,29.4,30.01,West,266,5.0,13.0,34,0.00,,,0.18,Wunderground v.1.15,2013-02-19 22:59:00,
2013-02-19 18:04:00,57.6,29.4,30.01,WSW,238,6.0,10.0,34,0.00,,,0.18,Wunderground v.1.15,2013-02-19 23:04:00,
2013-02-19 18:09:00,57.5,29.3,30.01,WSW,250,7.0,13.0,34,0.00,,,0.18,Wunderground v.1.15,2013-02-19 23:09:00,
2013-02-19 18:14:00,57.4,29.2,30.01,WSW,246,7.0,11.0,34,0.00,,,0.18,Wunderground v.1.15,2013-02-19 23:14:00,
2013-02-19 18:19:00,57.5,30.0,30.01,West,270,6.0,12.0,35,0.00,,,0.18,Wunderground v.1.15,2013-02-19 23:19:00,
2013-02-19 18:24:00,57.5,30.0,30.01,West,272,7.0,13.0,35,0.00,,,0.18,Wunderground v.1.15,2013-02-19 23:24:00,
2013-02-19 18:29:00,57.5,30.0,30.02,WSW,256,5.0,13.0,35,0.00,,,0.18,Wunderground v.1.15,2013-02-19 23:29:00,
2013-02-19 18:34:00,57.5,30.0,30.02,West,261,5.0,11.0,35,0.00,,,0.18,Wunderground v.1.15,2013-02-19 23:34:00,
2013-02-19 18:39:00,57.4,29.9,30.02,SW,230,6.0,13.0,35,0.00,,,0.18,Wunderground v.1.15,2013-02-19 23:39:00,
2013-02-19 18:44:00,57.4,29.9,30.02,SW,227,2.0,12.0,35,0.00,,,0.18,Wunderground v.1.15,2013-02-19 23:44:00,
2013-02-19 18:49:00,57.4,29.9,30.02,West,273,7.0,12.0,35,0.00,,,0.18,Wunderground v.1.15,2013-02-19 23:49:00,
2013-02-19 18:54:00,57.4,29.9,30.02,WSW,248,7.0,14.0,35,0.00,,,0.18,Wunderground v.1.15,2013-02-19 23:54:00,
2013-02-19 19:00:00,57.4,29.9,30.02,WSW,252,5.0,14.0,35,0.00,,,0.18,Wunderground v.1.15,2013-02-20 00:00:00,
2013-02-19 19:05:00,57.4,29.9,30.02,West,275,6.0,10.0,35,0.00,,,0.18,Wunderground v.1.15,2013-02-20 00:05:00,
2013-02-19 19:10:00,57.3,29.9,30.02,SW,214,2.0,7.0,35,0.00,,,0.18,Wunderground v.1.15,2013-02-20 00:10:00,
2013-02-19 19:15:00,57.3,29.9,30.02,West,274,5.0,12.0,35,0.00,,,0.18,Wunderground v.1.15,2013-02-20 00:15:00,
2013-02-19 19:20:00,57.2,29.8,30.02,WSW,255,3.0,12.0,35,0.00,,,0.18,Wunderground v.1.15,2013-02-20 00:20:00,
2013-02-19 19:25:00,57.2,29.8,30.03,WSW,257,8.0,10.0,35,0.00,,,0.18,Wunderground v.1.15,2013-02-20 00:25:00,
2013-02-19 19:30:00,57.2,29.8,30.03,West,267,9.0,11.0,35,0.00,,,0.18,Wunderground v.1.15,2013-02-20 00:30:00,
2013-02-19 19:35:00,57.2,29.8,30.03,West,268,6.0,11.0,35,0.00,,,0.18,Wunderground v.1.15,2013-02-20 00:35:00,
2013-02-19 19:40:00,57.2,29.8,30.03,West,279,0.0,6.0,35,0.00,,,0.18,Wunderground v.1.15,2013-02-20 00:40:00,
2013-02-19 19:45:00,57.2,29.8,30.03,West,268,9.0,14.0,35,0.00,,,0.18,Wunderground v.1.15,2013-02-20 00:45:00,
2013-02-19 19:50:00,57.2,29.8,30.03,WSW,242,7.0,11.0,35,0.00,,,0.18,Wunderground v.1.15,2013-02-20 00:50:00,
2013-02-19 19:55:00,57.2,29.8,30.04,WSW,246,13.0,14.0,35,0.00,,,0.18,Wunderground v.1.15,2013-02-20 00:55:00,
2013-02-19 20:00:00,57.2,29.8,30.04,WNW,290,7.0,9.0,35,0.00,,,0.18,Wunderground v.1.15,2013-02-20 01:00:00,
2013-02-19 20:05:00,57.2,29.8,30.03,West,276,5.0,11.0,35,0.00,,,0.18,Wunderground v.1.15,2013-02-20 01:05:00,
2013-02-19 20:10:00,57.0,29.6,30.04,West,268,2.0,6.0,35,0.00,,,0.18,Wunderground v.1.15,2013-02-20 01:10:00,
2013-02-19 20:15:00,56.9,29.5,30.04,West,259,2.0,10.0,35,0.00,,,0.18,Wunderground v.1.15,2013-02-20 01:15:00,
2013-02-19 20:20:00,56.8,29.4,30.04,WSW,252,6.0,6.0,35,0.00,,,0.18,Wunderground v.1.15,2013-02-20 01:20:00,
2013-02-19 20:25:00,56.8,29.4,30.04,West,266,6.0,14.0,35,0.00,,,0.18,Wunderground v.1.15,2013-02-20 01:25:00,
2013-02-19 20:30:00,56.7,29.3,30.05,WSW,254,8.0,10.0,35,0.00,,,0.18,Wunderground v.1.15,2013-02-20 01:30:00,
2013-02-19 20:35:00,56.6,28.5,30.04,West,271,7.0,11.0,34,0.00,,,0.18,Wunderground v.1.15,2013-02-20 01:35:00,
2013-02-19 20:40:00,56.5,28.4,30.05,WSW,250,7.0,7.0,34,0.00,,,0.18,Wunderground v.1.15,2013-02-20 01:40:00,
2013-02-19 20:45:00,56.4,28.3,30.04,West,276,0.0,15.0,34,0.00,,,0.18,Wunderground v.1.15,2013-02-20 01:45:00,
2013-02-19 20:50:00,56.3,28.3,30.04,WNW,284,7.0,10.0,34,0.00,,,0.18,Wunderground v.1.15,2013-02-20 01:50:00,
2013-02-19 20:55:00,56.2,28.9,30.04,WSW,250,5.0,12.0,35,0.00,,,0.18,Wunderground v.1.15,2013-02-20 01:55:00,
2013-02-19 21:00:00,56.0,28.7,30.04,West,269,0.0,6.0,35,0.00,,,0.18,Wunderground v.1.15,2013-02-20 02:00:00,
2013-02-19 21:05:00,55.9,27.9,30.04,WSW,253,4.0,9.0,34,0.00,,,0.18,Wunderground v.1.15,2013-02-20 02:05:00,
2013-02-19 21:10:00,55.8,28.5,30.05,West,270,5.0,9.0,35,0.00,,,0.18,Wunderground v.1.15,2013-02-20 02:10:00,
2013-02-19 21:15:00,55.6,28.4,30.05,WSW,252,9.0,10.0,35,0.00,,,0.18,Wunderground v.1.15,2013-02-20 02:15:00,
2013-02-19 21:20:00,55.5,28.3,30.05,WSW,254,7.0,8.0,35,0.00,,,0.18,Wunderground v.1.15,2013-02-20 02:20:00,
2013-02-19 21:25:00,55.3,28.1,30.05,West,259,6.0,9.0,35,0.00,,,0.18,Wunderground v.1.15,2013-02-20 02:25:00,
2013-02-19 21:30:00,55.1,27.9,30.05,WSW,252,5.0,7.0,35,0.00,,,0.18,Wunderground v.1.15,2013-02-20 02:30:00,
2013-02-19 21:35:00,54.9,27.7,30.05,WSW,252,2.0,7.0,35,0.00,,,0.18,Wunderground v.1.15,2013-02-20 02:35:00,
2013-02-19 21:40:00,54.7,27.6,30.05,WSW,250,6.0,6.0,35,0.00,,,0.18,Wunderground v.1.15,2013-02-20 02:40:00,
2013-02-19 21:45:00,54.5,27.4,30.05,WSW,250,0.0,6.0,35,0.00,,,0.18,Wunderground v.1.15,2013-02-20 02:45:00,
2013-02-19 21:50:00,54.3,27.2,30.05,WSW,249,0.0,6.0,35,0.00,,,0.18,Wunderground v.1.15,2013-02-20 02:50:00,
2013-02-19 21:55:00,54.1,27.0,30.05,WSW,240,5.0,6.0,35,0.00,,,0.18,Wunderground v.1.15,2013-02-20 02:55:00,
2013-02-19 22:00:00,54.0,26.9,30.06,WSW,242,4.0,6.0,35,0.00,,,0.18,Wunderground v.1.15,2013-02-20 03:00:00,
2013-02-19 22:05:00,53.8,27.4,30.06,WSW,242,0.0,6.0,36,0.00,,,0.18,Wunderground v.1.15,2013-02-20 03:05:00,
2013-02-19 22:10:00,53.6,27.3,30.06,WSW,253,5.0,5.0,36,0.00,,,0.18,Wunderground v.1.15,2013-02-20 03:10:00,
2013-02-19 22:15:00,53.5,27.2,30.06,WSW,248,4.0,6.0,36,0.00,,,0.18,Wunderground v.1.15,2013-02-20 03:15:00,
2013-02-19 22:20:00,53.3,27.0,30.06,WSW,240,5.0,6.0,36,0.00,,,0.18,Wunderground v.1.15,2013-02-20 03:20:00,
2013-02-19 22:25:00,53.2,26.9,30.06,WSW,240,4.0,7.0,36,0.00,,,0.18,Wunderground v.1.15,2013-02-20 03:25:00,
2013-02-19 22:30:00,53.1,26.8,30.06,WSW,256,0.0,4.0,36,0.00,,,0.18,Wunderground v.1.15,2013-02-20 03:30:00,
2013-02-19 22:35:00,53.0,26.7,30.06,WSW,257,6.0,8.0,36,0.00,,,0.18,Wunderground v.1.15,2013-02-20 03:35:00,
2013-02-19 22:40:00,52.9,26.6,30.06,WSW,248,3.0,4.0,36,0.00,,,0.18,Wunderground v.1.15,2013-02-20 03:40:00,
2013-02-19 22:45:00,52.8,26.6,30.06,WSW,242,4.0,6.0,36,0.00,,,0.18,Wunderground v.1.15,2013-02-20 03:45:00,
2013-02-19 22:50:00,52.7,26.5,30.06,WSW,252,6.0,6.0,36,0.00,,,0.18,Wunderground v.1.15,2013-02-20 03:50:00,
2013-02-19 22:55:00,52.6,26.4,30.06,SW,234,5.0,9.0,36,0.00,,,0.19,Wunderground v.1.15,2013-02-20 03:55:00,
2013-02-19 23:00:00,52.5,26.3,30.06,WSW,249,8.0,8.0,36,0.00,,,0.19,Wunderground v.1.15,2013-02-20 04:00:00,
2013-02-19 23:05:00,52.4,26.2,30.05,WSW,245,7.0,9.0,36,0.00,,,0.19,Wunderground v.1.15,2013-02-20 04:05:00,
2013-02-19 23:11:00,52.3,26.1,30.06,West,264,6.0,9.0,36,0.00,,,0.19,Wunderground v.1.15,2013-02-20 04:11:00,
2013-02-19 23:16:00,52.3,26.1,30.05,WSW,253,4.0,9.0,36,0.00,,,0.19,Wunderground v.1.15,2013-02-20 04:16:00,
2013-02-19 23:21:00,52.2,26.0,30.06,WSW,256,7.0,7.0,36,0.00,,,0.19,Wunderground v.1.15,2013-02-20 04:21:00,
2013-02-19 23:26:00,52.1,26.6,30.06,West,260,6.0,9.0,37,0.00,,,0.19,Wunderground v.1.15,2013-02-20 04:26:00,
2013-02-19 23:31:00,52.1,26.6,30.06,West,266,6.0,12.0,37,0.00,,,0.19,Wunderground v.1.15,2013-02-20 04:31:00,
2013-02-19 23:36:00,52.1,26.6,30.06,West,260,6.0,13.0,37,0.00,,,0.19,Wunderground v.1.15,2013-02-20 04:36:00,
2013-02-19 23:41:00,52.2,26.7,30.06,WNW,294,6.0,11.0,37,0.00,,,0.19,Wunderground v.1.15,2013-02-20 04:41:00,
2013-02-19 23:46:00,52.3,26.8,30.06,West,274,4.0,15.0,37,0.00,,,0.19,Wunderground v.1.15,2013-02-20 04:46:00,
2013-02-19 23:51:00,52.3,26.8,30.06,West,260,10.0,10.0,37,0.00,,,0.19,Wunderground v.1.15,2013-02-20 04:51:00,
2013-02-19 23:56:00,52.2,26.7,30.06,West,275,0.0,14.0,37,0.00,,,0.19,Wunderground v.1.15,2013-02-20 04:56:00,